SL-8 DEB, 1617

Orbit data source: Space-Track

SL-8 DEB, 1617 is space debris in LEO originally from a launch on Sat, 18 Sep 1965 UTC launched from the Tyuratam Missile And Space Complex (TTMTR). Debris objects in space refer to the collection of defunct objects orbiting the Earth. Examples of debris include non-operational satellites, rocket bodies, and fragments generated from explosions, collisions, or faulty payload assembly.

Loading next visibility...
Identifier
1617, 1965-073J
Orbit
LEO
Country
Flag of CISCIS
Related business
Manufacturer
Unknown
Mission
Spacecraft
Bus & Motor
Unknown
Mass
Unknown
Launch date (UTC)
1965-09-18 (60 years ago)
Launch vehicle
Unknown
Launch site
Tyuratam Missile And Space Complex (TTMTR)
Object type
Payload
Rocket body
Debris
Shape & HBR
Unknown shape, 0.2 m
Radar Cross Section
Medium (>0.1 m² and <1 m²)

Expand to show TLE details & history
Last TLE update: 2 days ago

TLE from 2 days ago
0 SL-8 DEB
1  1617U 65073J   25306.34806779  .00000640  00000-0  53171-2 0  9995
2  1617  56.1296 299.6911 0238884  13.2667  99.8412 12.34782737702423
Epoch: 2025-11-02T08:21Z
TLE epoch observation values (Epoch: 2025-11-02T08:21:13.057Z)
Latitude
48.50519°
Longitude
-96.51597°
Altitude
1,571.307 km
Speed
7.071 km/s
True Right ascension
04h 42m 36s
True Declination
48° 21' 07"
Sunlit
Object was in full shadow at epoch
Visualization orbit readout
Latitude
Unknown
Longitude
Unknown
Altitude
Unknown
Speed
Unknown
Apparent Right ascension
Unknown
Apparent Declination
Unknown
Sunlit
N/A
Visualization observer readout
Local Sidereal Time
21:58:35
Azimuth
Unknown
Elevation
Unknown
Doppler factor
Unknown
Orbital elements
Apogee altitude
1,717.492 km
Perigee altitude
1,339.733 km
Semi-major axis
7,906.749 km
Eccentricity
0.02389
Inclination
56.1296°
RAAN
299.6911°
Arg. of periapsis
13.2667°
True anomaly
102.52365°
Mean anomaly
99.8412°
Eccentric anomaly
101.18391°
Mean motion
3.08707 °/min
Orbital period
116.62 mins
BSTAR
0.0053171
Loading maneuver chart data...
Computing Atmospheric mass density...
Loading historical data...
Loading historical data...
Loading historical data...
Loading historical data...
Loading historical data...
Loading historical data...
Loading historical data...

Documentation

Showing up to 5 results
|